Weather History for KPSC - July, 2014

Change the Weather History Date:

Monday, July 28, 2014

  Actual Average Record
Temperature  
Mean Temperature 83 °F 75 °F  
Max Temperature 103 °F 93 °F 110 °F (1998)
Min Temperature 63 °F 58 °F 48 °F (2015)
Degree Days  
Heating Degree Days 0 0  
Month to date heating degree days 0 1  
Since 1 June heating degree days 18 33  
Since 1 July heating degree days 0 1  
Cooling Degree Days 18 10  
Month to date cooling degree days 382 237  
Year to date cooling degree days 527 379  
Since 1 June cooling degree days 493 346  
Growing Degree Days 32 (Base 50)    
Moisture  
Dew Point 55 °F    
Average Humidity 50    
Maximum Humidity 84    
Minimum Humidity 16    
Precipitation  
Precipitation 0.00 in 0.01 in 0.01 in (2001)
Month to date precipitation 0.03 0.27  
Year to date precipitation 2.59 5.20  
Snow  
Snow 0.00 in - - ()
Snow Depth 0.00 in    
Sea Level Pressure  
Sea Level Pressure 29.93 in    
Wind  
Wind Speed 5 mph (NNW)    
Max Wind Speed 12 mph    
Max Gust Speed 12 mph    
Visibility 10 miles    
Events      
T = Trace of Precipitation, MM = Missing Value Source: NWS Daily Summary

Daily Weather History Graph

Daily Weather History Graph

Search for Another Location

Airport or City:

Trip Planner

Search our weather history database for the weather conditions in past years. The results will help you decide how hot, cold, wet, or windy it might be!

Date:

Astronomy

Jul. 28, 2014 Rise Set
Actual Time 5:33 AM PDT 8:31 PM PDT
Civil Twilight 4:58 AM PDT 9:06 PM PDT
Nautical Twilight 4:12 AM PDT 9:52 PM PDT
Astronomical Twilight 3:18 AM PDT 10:46 PM PDT
Moon 7:28 AM PDT (7/28) 9:04 PM PDT (7/28)
Length of Visible Light 16h 08m
Length of Day
14h 58m
Waxing Crescent, 3% of the Moon is Illuminated
Jul 28
Waxing Crescent
Aug 3
First Quarter
Aug 10
Full
Aug 17
Last Quarter
Aug 25
New

Hourly Weather History & Observations

Time (PDT) Temp. Heat Index Dew Point Humidity Pressure Visibility Wind Dir Wind Speed Gust Speed Precip Events Conditions
12:53 AM 75.9 °F - 54.0 °F 46% 29.96 in 10.0 mi NW 9.2 mph - N/A   Partly Cloudy
1:53 AM 75.0 °F - 55.0 °F 50% 29.96 in 10.0 mi WNW 6.9 mph - N/A   Clear
2:53 AM 73.0 °F - 55.9 °F 55% 29.96 in 10.0 mi East 3.5 mph - N/A   Clear
3:53 AM 68.0 °F - 57.0 °F 68% 29.95 in 10.0 mi North 9.2 mph - N/A   Clear
4:53 AM 68.0 °F - 57.0 °F 68% 29.95 in 10.0 mi North 3.5 mph - N/A   Partly Cloudy
5:53 AM 63.0 °F - 57.9 °F 84% 29.99 in 10.0 mi North 4.6 mph - N/A   Clear
7:53 AM 73.0 °F - 57.0 °F 57% 30.01 in 10.0 mi Calm Calm - N/A   Clear
8:53 AM 79.0 °F - 55.9 °F 45% 30.01 in 10.0 mi NNW 4.6 mph - N/A   Clear
9:53 AM 84.0 °F 82.5 °F 53.1 °F 34% 30.00 in 10.0 mi North 3.5 mph - N/A   Clear
1:53 PM 97.0 °F - 48.0 °F 19% 29.95 in 10.0 mi NNW 5.8 mph - N/A   Clear
2:53 PM 100.9 °F - 46.0 °F 15% 29.94 in 10.0 mi Calm Calm - N/A   Clear
3:53 PM 100.9 °F - 48.9 °F 17% 29.91 in 10.0 mi North 5.8 mph - N/A   Clear
4:53 PM 102.9 °F - 48.9 °F 16% 29.89 in 10.0 mi NNW 4.6 mph - N/A   Clear
5:53 PM 102.0 °F 99.7 °F 53.1 °F 19% 29.88 in 10.0 mi NNW 4.6 mph - N/A   Clear
6:53 PM 100.9 °F 98.7 °F 53.1 °F 20% 29.87 in 10.0 mi North 4.6 mph - N/A   Clear
7:53 PM 97.0 °F - 48.9 °F 19% 29.87 in 10.0 mi Calm Calm - N/A   Clear
8:53 PM 91.9 °F 89.5 °F 53.1 °F 27% 29.88 in 10.0 mi Calm Calm - N/A   Clear
9:53 PM 73.9 °F - 63.0 °F 68% 29.90 in 8.0 mi NNW 4.6 mph - N/A   Clear
10:53 PM 72.0 °F - 62.1 °F 71% 29.90 in 10.0 mi NW 4.6 mph - N/A   Clear
11:53 PM 69.1 °F - 63.0 °F 81% 29.91 in 10.0 mi North 5.8 mph - N/A   Clear